DW8909 Weather Reports


time (UTC)temp
C
wind
direction
speed
KPH
gust
KPH
rain 1hr
cm
rain 24hr
cm
rain mn
cm
humidity
%
barometer
mb
20260507113034 15 111 4.8 14.5 0.00 0.00 0.00 64 1015.9
20260507111526 15 51 3.2 17.7 0.00 0.00 0.00 65 1016.0
20260507110022 14 355 4.8 16.1 0.00 0.00 0.00 65 1016.1
20260507104519 14 62 3.2 12.9 0.00 0.00 0.00 66 1016.1
20260507103014 14 44 4.8 11.3 0.00 0.00 0.00 65 1016.1
20260507101513 14 52 3.2 12.9 0.00 0.00 0.00 65 1016.1
20260507100009 14 23 4.8 12.9 0.00 0.00 0.00 66 1016.1
20260507094506 13 58 3.2 14.5 0.00 0.00 0.00 67 1016.0
20260507093001 13 246 3.2 9.7 0.00 0.00 0.00 67 1015.9
20260507091558 13 85 3.2 12.9 0.00 0.00 0.00 67 1015.7
20260507090053 13 333 1.6 9.7 0.00 0.00 0.00 68 1015.6
20260507084550 12 5 4.8 17.7 0.00 0.00 0.00 66 1015.6
20260507083046 12 40 1.6 14.5 0.00 0.00 0.00 70 1015.6
20260507081543 13 30 3.2 11.3 0.00 0.00 0.00 69 1015.5
20260507080039 12 50 3.2 9.7 0.00 0.00 0.00 69 1015.4
20260507074535 12 90 3.2 9.7 0.00 0.00 0.00 71 1015.3
20260507073031 11 74 3.2 14.5 0.00 0.00 0.00 75 1015.3
20260507071526 11 65 4.8 12.9 0.00 0.00 0.00 79 1015.3
20260507070035 10 38 4.8 11.3 0.00 0.00 0.00 81 1015.1
20260507064519 10 83 1.6 11.3 0.00 0.00 0.00 83 1015.1
20260507063017 10 355 1.6 8.0 0.00 0.00 0.00 84 1015.1
20260507061516 9 61 1.6 9.7 0.00 0.00 0.00 85 1015.0
20260507060019 9 73 3.2 12.9 0.00 0.00 0.00 87 1014.9
20260507054513 8 52 3.2 8.0 0.00 0.00 0.00 87 1014.8
20260507053011 8 63 1.6 4.8 0.00 0.00 0.00 88 1014.8
20260507051513 8 51 3.2 8.0 0.00 0.00 0.00 88 1014.6
20260507050015 8 38 1.6 8.0 0.00 0.00 0.00 88 1014.5
20260507044506 8 69 1.6 8.0 0.00 0.00 0.00 87 1014.3
20260507043002 8 59 3.2 9.7 0.00 0.00 0.00 87 1014.2
20260507041558 8 84 3.2 8.0 0.00 0.00 0.00 87 1014.1
20260507034602 8 69 3.2 9.7 0.00 0.00 0.00 86 1013.9
20260507033104 8 56 3.2 9.7 0.00 0.00 0.00 86 1013.7
20260507031558 8 78 3.2 11.3 0.00 0.00 0.00 85 1013.6
20260507030104 8 72 3.2 8.0 0.00 0.00 0.00 84 1013.5
20260507024605 8 44 3.2 9.7 0.00 0.00 0.00 83 1013.4
20260507023042 8 49 3.2 12.9 0.00 0.00 0.00 82 1013.4
20260507021550 8 42 4.8 12.9 0.00 0.00 0.00 82 1013.4
20260507020051 9 76 3.2 14.5 0.00 0.00 0.00 81 1013.2
20260507014548 9 53 3.2 9.7 0.00 0.00 0.00 80 1013.2
20260507013039 9 58 3.2 8.0 0.00 0.00 0.00 78 1013.2
20260507011535 10 65 3.2 9.7 0.00 0.00 0.00 77 1013.2
20260507010035 10 86 3.2 14.5 0.00 0.00 0.00 76 1013.1
20260507004526 10 38 6.4 11.3 0.00 0.00 0.00 76 1013.1
20260507003023 10 84 4.8 12.9 0.00 0.00 0.00 75 1013.1
20260507001526 11 49 4.8 14.5 0.00 0.00 0.00 74 1013.0
20260507000018 11 49 4.8 14.5 0.00 0.00 0.00 73 1012.9
20260506234516 11 70 4.8 12.9 0.00 0.00 0.00 72 1012.8
20260506233014 11 63 3.2 11.3 0.00 0.00 0.00 72 1012.7
20260506231512 11 51 4.8 14.5 0.00 0.00 0.00 73 1012.6
20260506230010 11 42 4.8 11.3 0.00 0.00 0.00 75 1012.5
20260506224507 11 45 4.8 12.9 0.00 0.00 0.00 77 1012.4
20260506223004 11 37 3.2 9.7 0.00 0.00 0.00 77 1012.4
20260506221504 11 59 4.8 14.5 0.00 0.00 0.00 77 1012.4
20260506220001 11 87 4.8 14.5 0.00 0.00 0.00 78 1012.3
20260506214600 11 40 4.8 14.5 0.00 0.00 0.00 78 1012.1
20260506213101 11 78 3.2 9.7 0.00 0.00 0.00 78 1012.1
20260506211557 11 75 3.2 17.7 0.00 0.00 0.00 78 1012.1
20260506210056 11 58 4.8 9.7 0.00 0.00 0.00 78 1012.0
20260506204554 11 34 3.2 14.5 0.00 0.00 0.00 78 1011.9
20260506203053 11 50 4.8 16.1 0.00 0.00 0.00 78 1011.9
20260506201555 11 46 4.8 14.5 0.00 0.00 0.00 78 1011.8
20260506200051 11 14 4.8 14.5 0.00 0.00 0.00 77 1011.7
20260506194550 11 43 6.4 17.7 0.00 0.00 0.00 78 1011.5
20260506193048 11 60 6.4 16.1 0.00 0.00 0.00 78 1011.4
20260506191548 11 11 6.4 17.7 0.00 0.00 0.00 78 1011.3
20260506190049 11 324 4.8 14.5 0.00 0.00 0.00 79 1011.2
20260506184550 11 57 4.8 14.5 0.00 0.00 0.00 78 1011.1
20260506183042 11 30 4.8 17.7 0.00 0.00 0.00 78 1010.9
20260506181540 11 47 4.8 14.5 0.00 0.00 0.00 79 1010.8
20260506180038 12 326 6.4 20.9 0.00 0.00 0.00 79 1010.5
20260506174537 12 46 6.4 16.1 0.00 0.00 0.00 80 1010.4
20260506173052 12 12 6.4 19.3 0.00 0.00 0.00 79 1010.3
20260506171535 12 54 6.4 19.3 0.00 0.00 0.00 78 1010.3
20260506170039 12 48 6.4 22.5 0.00 0.00 0.00 78 1010.1
20260506164535 12 315 6.4 16.1 0.00 0.00 0.00 77 1010.1
20260506163037 12 49 8.0 19.3 0.00 0.00 0.00 77 1009.9
20260506161533 12 74 6.4 22.5 0.00 0.00 0.00 77 1010.0
20260506160033 12 355 4.8 20.9 0.00 0.00 0.00 77 1010.1
20260506154531 13 24 6.4 17.7 0.00 0.00 0.00 77 1010.0
20260506153028 13 73 8.0 19.3 0.00 0.00 0.00 76 1010.0
20260506151529 13 5 6.4 17.7 0.00 0.00 0.00 77 1010.0
20260506150027 13 5 8.0 20.9 0.00 0.00 0.00 78 1010.0
20260506144532 12 5 6.4 17.7 0.00 0.00 0.00 77 1010.0
20260506143026 13 57 6.4 20.9 0.00 0.00 0.00 77 1010.0
20260506141524 13 37 8.0 17.7 0.00 0.00 0.00 76 1010.0
20260506140025 13 43 6.4 19.3 0.00 0.00 0.00 74 1010.1
20260506134522 14 49 6.4 20.9 0.00 0.00 0.00 74 1010.2
20260506133022 14 46 8.0 19.3 0.00 0.00 0.00 74 1010.1
20260506131529 14 13 8.0 22.5 0.00 0.00 0.00 74 1010.0
20260506130023 14 360 6.4 20.9 0.00 0.00 0.00 72 1009.9
20260506124519 14 337 11.3 25.7 0.00 0.00 0.00 71 1009.8
20260506123018 14 52 8.0 24.1 0.00 0.00 0.00 72 1009.7
20260506121517 14 34 8.0 24.1 0.00 0.00 0.00 71 1009.6
20260506120019 14 44 8.0 20.9 0.00 0.00 0.00 71 1009.6
20260506114516 14 56 8.0 25.7 0.00 0.00 0.00 71 1009.6